Lid_Strength_Index
-0 0 0 -0 0 0 1 0 0 -0 -0 -0 -0 -1 -1 -0 1 6 8 5 3 -1 0 5 7 7 8 8 7 9 12 14 14 13 13 12 12 11 12 13 13 13 13 13 12
0 0 0 0 0 0 1 1 0 -0 -0 -0 -0 -1 -0 0 5 7 3 -0 -2 -1 7 8 9 8 9 9 9 11 13 13 12 13 13 12 12 12 13 14 14 14 13 13 14
0 1 1 0 0 0 1 1 0 0 0 0 -0 -0 -0 2 7 7 0 -1 -1 0 6 8 8 8 10 10 11 12 13 12 11 11 11 12 13 12 14 15 14 15 15 15 15
0 1 1 1 1 1 1 1 1 0 0 0 0 -0 1 4 11 6 -1 -1 -1 4 7 8 9 10 12 12 10 13 11 11 10 11 12 12 12 13 14 14 13 14 14 15 15
1 1 1 1 1 1 1 1 1 0 0 0 -0 0 4 8 8 6 1 3 6 6 8 9 10 11 12 12 11 13 12 11 11 11 12 12 13 14 15 14 14 14 14 15 15
1 1 1 1 1 1 1 1 1 0 0 0 -0 1 6 10 6 5 6 6 7 7 8 9 10 10 11 11 13 12 11 11 11 11 12 13 14 13 14 14 15 14 15 15 15
1 1 1 1 1 1 2 1 1 1 0 0 -0 3 7 8 6 6 7 8 8 8 8 9 9 10 10 12 10 12 13 12 12 12 12 12 15 14 13 14 15 15 15 15 15
1 1 1 1 1 1 2 1 1 1 0 0 0 4 9 5 6 6 7 7 7 8 8 8 8 9 11 11 12 14 14 16 13 12 13 14 16 14 14 15 16 16 17 15 16
2 1 1 1 1 2 2 1 1 0 0 1 4 6 10 4 6 6 7 8 8 8 8 8 8 10 11 14 15 15 17 16 15 12 13 14 16 14 15 15 16 18 17 17 18
1 1 1 1 1 2 2 1 1 2 3 4 6 9 8 8 6 6 7 8 9 9 8 9 11 13 13 14 16 17 17 16 17 14 14 15 15 15 15 16 17 18 18 18 18
1 1 2 2 2 2 3 7 8 8 8 9 10 9 8 6 6 7 8 9 9 9 11 11 13 14 13 14 14 15 16 17 15 13 14 14 14 15 14 17 19 19 19 19 19
1 2 2 2 2 2 6 10 9 8 11 9 9 8 7 7 10 9 8 11 10 12 12 12 14 12 12 13 14 15 16 16 14 14 15 15 16 15 15 16 17 18 19 19 19
1 2 2 2 2 5 9 9 6 7 12 10 8 8 7 8 10 10 10 11 12 12 13 14 12 12 13 14 15 15 16 16 16 16 16 17 19 16 17 16 18 18 18 19 19
1 2 3 3 6 8 8 6 5 7 15 13 11 8 9 9 11 9 10 11 12 12 13 14 13 13 14 14 14 17 15 15 16 18 21 18 22 19 19 18 18 18 20 20 19
1 2 3 4 10 9 7 6 7 10 21 13 10 8 9 11 11 10 10 11 12 12 13 13 15 15 15 14 13 15 15 16 17 19 21 20 22 20 20 19 19 18 20 20 19
1 2 4 5 9 8 7 8 10 15 19 13 10 11 12 12 11 10 11 11 12 14 15 13 13 14 14 14 14 14 16 17 18 20 24 20 21 22 22 19 18 18 20 19 19
1 2 5 6 9 7 7 10 17 19 14 13 12 11 12 13 13 12 13 14 13 15 16 15 15 14 13 15 14 15 18 21 22 24 22 21 22 18 18 18 18 18 20 20 19
1 4 5 5 6 7 8 12 19 16 15 12 12 13 13 12 13 13 14 15 14 14 17 17 17 15 14 15 15 16 17 20 24 24 19 21 23 20 20 19 17 17 19 20 20
3 5 5 5 6 6 13 17 16 15 13 12 13 15 15 13 13 15 16 16 13 13 14 17 17 16 16 16 15 17 19 17 21 31 28 23 21 19 21 21 21 20 20 20 20
5 5 6 5 5 8 15 14 14 12 11 12 14 13 15 14 14 15 16 14 13 13 13 15 17 17 18 17 17 17 16 20 21 25 27 24 23 20 22 22 21 21 21 21 20
6 10 9 6 7 10 14 14 12 10 10 12 13 14 14 14 14 16 15 13 12 14 14 16 16 19 18 19 18 20 20 20 19 19 23 24 20 19 20 19 21 20 20 20 19
5 12 9 6 11 15 14 14 11 12 9 10 11 12 12 12 14 14 14 12 13 14 15 15 17 20 19 18 18 18 18 18 20 22 21 22 21 19 18 18 19 20 20 20 19
9 11 6 6 13 14 14 13 12 14 12 12 12 11 11 13 14 13 12 13 14 14 15 16 18 22 19 19 20 20 19 17 18 19 21 24 20 19 19 20 19 20 20 19 19
10 14 10 10 11 13 13 13 13 11 12 12 13 13 14 14 12 14 15 15 14 14 11 12 17 17 17 16 18 20 21 19 17 20 20 20 19 16 18 20 20 20 20 20 19
10 13 12 15 14 12 12 14 14 13 11 10 12 12 13 14 14 14 13 16 16 14 15 15 18 17 15 14 17 16 16 20 20 19 20 18 17 15 13 16 19 19 20 19 20
9 11 12 15 13 13 13 14 15 15 14 13 13 11 11 13 12 13 11 15 15 18 18 17 17 17 18 16 17 19 17 17 18 17 18 17 18 13 13 17 20 19 19 19 19
5 8 9 11 14 14 14 14 14 13 13 12 12 11 13 13 10 9 10 11 11 15 18 18 18 18 18 18 19 22 19 18 17 16 17 20 16 14 16 19 20 20 19 19 19